Weather History for PAGS - January, 2013

Change the Weather History Date:

Wednesday, January 30, 2013

  Actual Average Record
Temperature  
Mean Temperature 26 °F -  
Max Temperature 30 °F 31 °F 46 °F (1998)
Min Temperature 23 °F 17 °F -2 °F (1966)
Degree Days  
Heating Degree Days 38    
Moisture  
Dew Point 24 °F    
Average Humidity 85    
Maximum Humidity 93    
Minimum Humidity 80    
Precipitation  
Precipitation 0.00 in - - ()
Sea Level Pressure  
Sea Level Pressure 30.10 in    
Wind  
Wind Speed 4 mph (NNW)    
Max Wind Speed 8 mph    
Max Gust Speed -    
Visibility 4 miles    
Events      
Averages and records for this station are not official NWS values.
T = Trace of Precipitation, MM = Missing Value Source: NWS Daily Summary

Daily Weather History Graph

Daily Weather History Graph

Search for Another Location

Airport or City:

Trip Planner

Search our weather history database for the weather conditions in past years. The results will help you decide how hot, cold, wet, or windy it might be!

Date:

Astronomy

Jan. 30, 2013 Rise Set
Actual Time 8:11 AM AKST 4:21 PM AKST
Civil Twilight 7:26 AM AKST 5:06 PM AKST
Nautical Twilight 6:38 AM AKST 5:55 PM AKST
Astronomical Twilight 5:51 AM AKST 6:41 PM AKST
Moon 9:39 PM AKST (1/30) 8:40 AM AKST (1/30)
Length of Visible Light 9h 39m
Length of Day
8h 09m
Waning Gibbous, 86% of the Moon is Illuminated
Jan 30
Waning Gibbous
Feb 3
Last Quarter
Feb 9
New
Feb 17
First Quarter
Feb 25
Full

Hourly Weather History & Observations

Time (AKST) Temp. Windchill Dew Point Humidity Pressure Visibility Wind Dir Wind Speed Gust Speed Precip Events Conditions
12:16 AM 23.0 °F 17.0 °F 19.4 °F 86% 30.11 in 3.0 mi NNW 4.6 mph - N/A   Overcast
12:36 AM 24.8 °F 17.9 °F 19.4 °F 80% 30.12 in 3.0 mi NNW 5.8 mph - N/A   Overcast
12:56 AM 24.8 °F 20.5 °F 19.4 °F 80% 30.12 in 4.0 mi North 3.5 mph - N/A   Overcast
1:16 AM 24.8 °F 17.9 °F 19.4 °F 80% 30.13 in 3.0 mi NNW 5.8 mph - N/A   Overcast
1:36 AM 24.8 °F 17.9 °F 19.4 °F 80% 30.14 in 3.0 mi NNW 5.8 mph - N/A   Overcast
1:56 AM 24.8 °F 17.9 °F 19.4 °F 80% 30.14 in 2.5 mi North 5.8 mph - N/A   Overcast
2:16 AM 24.8 °F 20.5 °F 19.4 °F 80% 30.15 in 3.0 mi NNW 3.5 mph - N/A   Overcast
2:36 AM 24.8 °F 17.9 °F 19.4 °F 80% 30.15 in 3.0 mi NNW 5.8 mph - N/A   Overcast
2:56 AM 24.8 °F 19.1 °F 19.4 °F 80% 30.15 in 2.0 mi NNW 4.6 mph - N/A   Overcast
3:16 AM 24.8 °F 17.9 °F 21.2 °F 86% 30.15 in 2.5 mi NNW 5.8 mph - N/A   Overcast
3:36 AM 24.8 °F 19.1 °F 21.2 °F 86% 30.16 in 3.0 mi NW 4.6 mph - N/A   Overcast
3:56 AM 24.8 °F 19.1 °F 19.4 °F 80% 30.16 in 2.5 mi North 4.6 mph - N/A   Overcast
4:16 AM 24.8 °F 16.9 °F 21.2 °F 86% 30.16 in 3.0 mi NNW 6.9 mph - N/A   Overcast
4:36 AM 24.8 °F 19.1 °F 21.2 °F 86% 30.16 in 3.0 mi NNW 4.6 mph - N/A   Overcast
4:56 AM 24.8 °F 20.5 °F 21.2 °F 86% 30.16 in 2.0 mi NW 3.5 mph - N/A   Overcast
5:16 AM 24.8 °F 20.5 °F 21.2 °F 86% 30.16 in 2.0 mi NW 3.5 mph - N/A   Overcast
5:36 AM 24.8 °F 20.5 °F 21.2 °F 86% 30.16 in 2.0 mi NNW 3.5 mph - N/A   Overcast
5:56 AM 24.8 °F - 21.2 °F 86% 30.16 in 2.5 mi Calm Calm - N/A   Overcast
6:16 AM 24.8 °F - 21.2 °F 86% 30.16 in 3.0 mi Calm Calm - N/A   Overcast
6:36 AM 24.8 °F 19.1 °F 21.2 °F 86% 30.16 in 3.0 mi NNW 4.6 mph - N/A   Overcast
6:56 AM 24.8 °F 17.9 °F 21.2 °F 86% 30.16 in 3.0 mi NNW 5.8 mph - N/A   Overcast
7:16 AM 24.8 °F 19.1 °F 21.2 °F 86% 30.16 in 3.0 mi NNW 4.6 mph - N/A   Overcast
7:36 AM 26.6 °F 22.6 °F 21.2 °F 80% 30.16 in 2.0 mi NNW 3.5 mph - N/A   Overcast
7:56 AM 24.8 °F 19.1 °F 21.2 °F 86% 30.17 in 2.0 mi North 4.6 mph - N/A   Overcast
8:16 AM 24.8 °F 19.1 °F 21.2 °F 86% 30.17 in 1.8 mi NNW 4.6 mph - N/A   Overcast
8:36 AM 26.6 °F 21.2 °F 21.2 °F 80% 30.17 in 1.2 mi NNW 4.6 mph - N/A   Overcast
8:56 AM 26.6 °F 21.2 °F 21.2 °F 80% 30.17 in 2.0 mi NNW 4.6 mph - N/A   Overcast
9:16 AM 26.6 °F 19.1 °F 21.2 °F 80% 30.17 in 1.5 mi NNW 6.9 mph - N/A   Overcast
9:36 AM 26.6 °F 20.0 °F 21.2 °F 80% 30.17 in 1.8 mi NNW 5.8 mph - N/A   Overcast
9:56 AM 26.6 °F 21.2 °F 23.0 °F 86% 30.17 in 1.8 mi NNW 4.6 mph - N/A   Overcast
10:16 AM 26.6 °F 20.0 °F 23.0 °F 86% 30.17 in 2.0 mi NNW 5.8 mph - N/A   Overcast
10:36 AM 26.6 °F 21.2 °F 23.0 °F 86% 30.17 in 2.5 mi NNW 4.6 mph - N/A   Overcast
10:56 AM 26.6 °F 21.2 °F 23.0 °F 86% 30.17 in 2.5 mi NNW 4.6 mph - N/A   Overcast
11:16 AM 28.4 °F 22.2 °F 23.0 °F 80% 30.17 in 2.5 mi NNW 5.8 mph - N/A   Overcast
11:36 AM 28.4 °F 23.3 °F 24.8 °F 86% 30.16 in 1.5 mi NNW 4.6 mph - N/A   Overcast
11:56 AM 28.4 °F 23.3 °F 24.8 °F 86% 30.16 in 1.8 mi NNW 4.6 mph - N/A   Overcast
12:16 PM 28.4 °F 21.2 °F 24.8 °F 86% 30.16 in 1.5 mi NNW 6.9 mph - N/A   Overcast
12:36 PM 28.4 °F 20.4 °F 24.8 °F 86% 30.15 in 1.2 mi North 8.1 mph - N/A   Overcast
12:56 PM 28.4 °F 21.2 °F 24.8 °F 86% 30.15 in 1.8 mi NNW 6.9 mph - N/A   Overcast
1:16 PM 28.4 °F 21.2 °F 24.8 °F 86% 30.14 in 2.5 mi NNW 6.9 mph - N/A   Overcast
1:36 PM 28.4 °F 22.2 °F 24.8 °F 86% 30.13 in 7.0 mi NNW 5.8 mph - N/A   Overcast
1:56 PM 30.2 °F 25.4 °F 24.8 °F 80% 30.13 in 9.0 mi NNW 4.6 mph - N/A   Overcast
2:16 PM 30.2 °F 23.4 °F 24.8 °F 80% 30.12 in 5.0 mi NNW 6.9 mph - N/A   Overcast
2:36 PM 30.2 °F 24.3 °F 26.6 °F 86% 30.11 in 3.0 mi NNW 5.8 mph - N/A   Overcast
2:56 PM 30.2 °F 24.3 °F 26.6 °F 86% 30.11 in 2.5 mi NNW 5.8 mph - N/A   Overcast
3:16 PM 30.2 °F - 26.6 °F 86% 30.10 in 2.0 mi Calm Calm - N/A   Overcast
3:36 PM 30.2 °F - 26.6 °F 86% 30.09 in 1.8 mi Calm Calm - N/A   Overcast
3:56 PM 30.2 °F - 26.6 °F 86% 30.08 in 1.5 mi Calm Calm - N/A   Overcast
4:16 PM 30.2 °F - 26.6 °F 86% 30.08 in 2.5 mi Calm Calm - N/A   Overcast
4:36 PM 30.2 °F - 26.6 °F 86% 30.07 in 2.0 mi Calm Calm - N/A   Overcast
4:56 PM 30.2 °F - 26.6 °F 86% 30.07 in 2.5 mi Calm Calm - N/A   Overcast
5:16 PM 30.2 °F - 26.6 °F 86% 30.06 in 3.0 mi Calm Calm - N/A   Overcast
5:36 PM 30.2 °F - 26.6 °F 86% 30.05 in 4.0 mi Calm Calm - N/A   Overcast
5:56 PM 30.2 °F - 26.6 °F 86% 30.05 in 5.0 mi Calm Calm - N/A   Overcast
6:16 PM 30.2 °F - 26.6 °F 86% 30.04 in 8.0 mi Calm Calm - N/A   Overcast
6:36 PM 30.2 °F - 26.6 °F 86% 30.03 in 3.0 mi Calm Calm - N/A   Overcast
6:56 PM 30.2 °F - 26.6 °F 86% 30.01 in 3.0 mi Calm Calm - N/A   Overcast
7:16 PM 30.2 °F - 26.6 °F 86% 30.00 in 3.0 mi Calm Calm - N/A   Overcast
7:36 PM 30.2 °F - 26.6 °F 86% 30.00 in 10.0 mi Calm Calm - N/A   Overcast
7:56 PM 30.2 °F - 26.6 °F 86% 29.99 in 8.0 mi Calm Calm - N/A   Overcast
8:16 PM 30.2 °F - 26.6 °F 86% 29.99 in 10.0 mi Calm Calm - N/A   Overcast
8:36 PM 30.2 °F - 26.6 °F 86% 29.98 in 10.0 mi Calm Calm - N/A   Overcast
8:56 PM 30.2 °F - 26.6 °F 86% 29.97 in 10.0 mi Calm Calm - N/A   Overcast
9:16 PM 30.2 °F - 26.6 °F 86% 29.96 in 10.0 mi Calm Calm - N/A   Overcast
9:36 PM 30.2 °F - 26.6 °F 86% 29.95 in 10.0 mi Calm Calm - N/A   Overcast
9:56 PM 30.2 °F - 26.6 °F 86% 29.94 in 10.0 mi Calm Calm - N/A   Overcast
10:16 PM 28.4 °F - 26.6 °F 93% 29.94 in 10.0 mi Calm Calm - N/A   Overcast
10:36 PM 28.4 °F - 26.6 °F 93% 29.93 in 10.0 mi Calm Calm - N/A   Overcast
10:56 PM 28.4 °F - 24.8 °F 86% 29.92 in 10.0 mi Calm Calm - N/A   Overcast
11:16 PM 30.2 °F - 26.6 °F 86% 29.91 in 10.0 mi Calm Calm - N/A   Overcast
11:36 PM 28.4 °F - 26.6 °F 93% 29.91 in 7.0 mi Calm Calm - N/A   Overcast
11:56 PM 28.4 °F - 26.6 °F 93% 29.90 in 0.5 mi Calm Calm - N/A   Overcast